contact:dominique.lefevre@mio.osupytheas.fr, maurice.libes@osupytheas.fr, didier.mallarino@osupytheas.fr
Project:EMSO http://www.emso-fr.org/EMSO-France
Depth: 2436.0 m
Title:EMSO Ligure Ouest : Data MII capteur CSTAR
DateTime,Latitude,Longitude,Instrument_Serial,Reference_Counts,Signal_Counts,Corrected_Signal_raw_counts,Calculated_Beam_c_inverse_meters,Internal_thermistor_counts
DateTime,Latitude,Longitude,Instrument_Serial,Reference_Counts,Signal_Counts,Corrected_Signal_raw_counts,Calculated_Beam_c_inverse_meters,Internal_thermistor_counts
2023-03-26T00:01:30,42.805,6.029,CST-1368DR,4343,4720,11543,01.209,552
2023-03-26T00:04:31,42.805,6.029,CST-1368DR,4343,4720,11544,01.209,551
2023-03-26T00:07:33,42.805,6.029,CST-1368DR,4343,4721,11546,01.208,551
2023-03-26T00:10:34,42.805,6.029,CST-1368DR,4343,4724,11552,01.206,551
2023-03-26T00:13:36,42.805,6.029,CST-1368DR,4343,4722,11549,01.207,552
2023-03-26T00:16:38,42.805,6.029,CST-1368DR,4343,4723,11550,01.206,551
2023-03-26T00:19:39,42.805,6.029,CST-1368DR,4343,4723,11550,01.206,551
2023-03-26T00:22:41,42.805,6.029,CST-1368DR,4343,4727,11560,01.203,551
2023-03-26T00:25:42,42.805,6.029,CST-1368DR,4343,4723,11549,01.207,551
2023-03-26T00:28:44,42.805,6.029,CST-1368DR,4343,4729,11565,01.201,551
2023-03-26T00:31:45,42.805,6.029,CST-1368DR,4343,4725,11555,01.205,551
2023-03-26T00:34:47,42.805,6.029,CST-1368DR,4343,4723,11551,01.206,551
2023-03-26T00:37:49,42.805,6.029,CST-1368DR,4343,4724,11552,01.206,551
2023-03-26T00:40:50,42.805,6.029,CST-1368DR,4343,4719,11541,01.210,551
2023-03-26T00:43:52,42.805,6.029,CST-1368DR,4343,4720,11542,01.209,552
2023-03-26T00:46:53,42.805,6.029,CST-1368DR,4343,4719,11541,01.210,551
2023-03-26T00:49:55,42.805,6.029,CST-1368DR,4343,4716,11533,01.212,551
2023-03-26T00:52:57,42.805,6.029,CST-1368DR,4343,4720,11542,01.209,551
2023-03-26T00:55:58,42.805,6.029,CST-1368DR,4343,4722,11549,01.207,551
2023-03-26T00:59:00,42.805,6.029,CST-1368DR,4343,4724,11552,01.206,551
2023-03-26T01:02:01,42.805,6.029,CST-1368DR,4343,4715,11530,01.213,551
2023-03-26T01:05:03,42.805,6.029,CST-1368DR,4343,4725,11554,01.205,551
2023-03-26T01:08:04,42.805,6.029,CST-1368DR,4343,4722,11549,01.207,551
2023-03-26T01:11:06,42.805,6.029,CST-1368DR,4343,4712,11524,01.215,551
2023-03-26T01:14:08,42.805,6.029,CST-1368DR,4343,4721,11544,01.209,551
2023-03-26T01:17:09,42.805,6.029,CST-1368DR,4343,4720,11544,01.209,551
2023-03-26T01:20:11,42.805,6.029,CST-1368DR,4343,4720,11542,01.209,551
2023-03-26T01:23:12,42.805,6.029,CST-1368DR,4343,4721,11546,01.208,551
2023-03-26T01:26:14,42.805,6.029,CST-1368DR,4343,4723,11550,01.206,551
2023-03-26T01:29:15,42.805,6.029,CST-1368DR,4343,4720,11544,01.209,551
2023-03-26T01:32:17,42.805,6.029,CST-1368DR,4343,4722,11547,01.207,551
2023-03-26T01:35:19,42.805,6.029,CST-1368DR,4343,4716,11532,01.213,551
2023-03-26T01:38:20,42.805,6.029,CST-1368DR,4343,4720,11542,01.209,551
2023-03-26T01:41:22,42.805,6.029,CST-1368DR,4343,4724,11552,01.206,551
2023-03-26T01:44:23,42.805,6.029,CST-1368DR,4343,4723,11550,01.206,551
2023-03-26T01:47:25,42.805,6.029,CST-1368DR,4343,4722,11549,01.207,551
2023-03-26T01:50:27,42.805,6.029,CST-1368DR,4343,4716,11534,01.212,551
2023-03-26T01:53:28,42.805,6.029,CST-1368DR,4343,4715,11531,01.213,551
2023-03-26T01:56:30,42.805,6.029,CST-1368DR,4343,4722,11548,01.207,551
2023-03-26T01:59:31,42.805,6.029,CST-1368DR,4343,4719,11541,01.210,551
2023-03-26T02:02:33,42.805,6.029,CST-1368DR,4343,4718,11538,01.211,551
2023-03-26T02:05:34,42.805,6.029,CST-1368DR,4343,4717,11536,01.211,551
2023-03-26T02:08:36,42.805,6.029,CST-1368DR,4343,4716,11533,01.212,551
2023-03-26T02:11:38,42.805,6.029,CST-1368DR,4343,4717,11536,01.211,551
2023-03-26T02:14:39,42.805,6.029,CST-1368DR,4343,4704,11503,01.223,551
2023-03-26T02:17:41,42.805,6.029,CST-1368DR,4343,4720,11543,01.209,551
2023-03-26T02:20:42,42.805,6.029,CST-1368DR,4343,4716,11533,01.212,551
2023-03-26T02:23:44,42.805,6.029,CST-1368DR,4343,4719,11539,01.210,551
2023-03-26T02:26:46,42.805,6.029,CST-1368DR,4343,4722,11547,01.207,551
2023-03-26T02:29:47,42.805,6.029,CST-1368DR,4343,4716,11533,01.212,551
2023-03-26T02:32:49,42.805,6.029,CST-1368DR,4343,4722,11547,01.207,551
2023-03-26T02:35:50,42.805,6.029,CST-1368DR,4343,4719,11540,01.210,551
2023-03-26T02:38:52,42.805,6.029,CST-1368DR,4343,4716,11533,01.212,551
2023-03-26T02:41:53,42.805,6.029,CST-1368DR,4343,4717,11535,01.212,551
2023-03-26T02:44:55,42.805,6.029,CST-1368DR,4343,4722,11549,01.207,551
2023-03-26T02:47:57,42.805,6.029,CST-1368DR,4343,4717,11535,01.212,551
2023-03-26T02:50:58,42.805,6.029,CST-1368DR,4343,4725,11554,01.205,551
2023-03-26T02:54:00,42.805,6.029,CST-1368DR,4343,4725,11556,01.204,551
2023-03-26T02:57:01,42.805,6.029,CST-1368DR,4343,4725,11555,01.205,551
2023-03-26T03:00:03,42.805,6.029,CST-1368DR,4343,4720,11544,01.209,551
2023-03-26T03:03:04,42.805,6.029,CST-1368DR,4343,4724,11553,01.205,551
2023-03-26T03:06:06,42.805,6.029,CST-1368DR,4343,4726,11557,01.204,551
2023-03-26T03:09:08,42.805,6.029,CST-1368DR,4343,4722,11547,01.207,551
2023-03-26T03:12:09,42.805,6.029,CST-1368DR,4342,4712,11525,01.215,551
2023-03-26T03:15:11,42.805,6.029,CST-1368DR,4343,4721,11546,01.208,551
2023-03-26T03:18:12,42.805,6.029,CST-1368DR,4343,4726,11557,01.204,551
2023-03-26T03:21:14,42.805,6.029,CST-1368DR,4343,4725,11556,01.204,551
2023-03-26T03:24:16,42.805,6.029,CST-1368DR,4343,4724,11553,01.205,551
2023-03-26T03:27:17,42.805,6.029,CST-1368DR,4343,4726,11557,01.204,551
2023-03-26T03:30:19,42.805,6.029,CST-1368DR,4343,4719,11541,01.210,551
2023-03-26T03:33:20,42.805,6.029,CST-1368DR,4342,4717,11537,01.211,551
2023-03-26T03:36:22,42.805,6.029,CST-1368DR,4342,4722,11551,01.206,551
2023-03-26T03:39:23,42.805,6.029,CST-1368DR,4342,4728,11566,01.201,551
2023-03-26T03:42:25,42.805,6.029,CST-1368DR,4343,4727,11559,01.203,551
2023-03-26T03:45:27,42.805,6.029,CST-1368DR,4342,4722,11549,01.207,551
2023-03-26T03:48:28,42.805,6.029,CST-1368DR,4343,4723,11549,01.207,551
2023-03-26T03:51:30,42.805,6.029,CST-1368DR,4342,4721,11547,01.207,551
2023-03-26T03:54:31,42.805,6.029,CST-1368DR,4342,4720,11546,01.208,551
2023-03-26T03:57:33,42.805,6.029,CST-1368DR,4342,4721,11549,01.207,551
2023-03-26T04:00:34,42.805,6.029,CST-1368DR,4342,4717,11539,01.210,551
2023-03-26T04:03:36,42.805,6.029,CST-1368DR,4342,4718,11541,01.210,551
2023-03-26T04:06:38,42.805,6.029,CST-1368DR,4342,4723,11553,01.205,551
2023-03-26T04:09:39,42.805,6.029,CST-1368DR,4343,4725,11554,01.205,551
2023-03-26T04:12:41,42.805,6.029,CST-1368DR,4343,4721,11544,01.209,551
2023-03-26T04:15:42,42.805,6.029,CST-1368DR,4342,4722,11549,01.207,551
2023-03-26T04:18:44,42.805,6.029,CST-1368DR,4342,4716,11536,01.211,551
2023-03-26T04:21:46,42.805,6.029,CST-1368DR,4342,4722,11549,01.207,551
2023-03-26T04:24:47,42.805,6.029,CST-1368DR,4342,4719,11542,01.209,551
2023-03-26T04:27:49,42.805,6.029,CST-1368DR,4342,4725,11558,01.204,551
2023-03-26T04:30:53,42.805,6.029,CST-1368DR,4342,4721,11549,01.207,551
2023-03-26T04:33:55,42.805,6.029,CST-1368DR,4343,4727,11559,01.203,551
2023-03-26T04:36:57,42.805,6.029,CST-1368DR,4342,4721,11547,01.207,551
2023-03-26T04:39:58,42.805,6.029,CST-1368DR,4342,4713,11527,01.214,551
2023-03-26T04:43:00,42.805,6.029,CST-1368DR,4342,4724,11555,01.205,551
2023-03-26T04:46:01,42.805,6.029,CST-1368DR,4342,4712,11525,01.215,551
2023-03-26T04:49:03,42.805,6.029,CST-1368DR,4342,4713,11527,01.214,551
2023-03-26T04:52:05,42.805,6.029,CST-1368DR,4342,4714,11531,01.213,551
2023-03-26T04:55:06,42.805,6.029,CST-1368DR,4342,4716,11535,01.212,551
2023-03-26T04:58:08,42.805,6.029,CST-1368DR,4342,4724,11555,01.205,551
2023-03-26T05:01:09,42.805,6.029,CST-1368DR,4342,4725,11559,01.203,551
2023-03-26T05:04:11,42.805,6.029,CST-1368DR,4342,4717,11538,01.211,551
2023-03-26T05:07:12,42.805,6.029,CST-1368DR,4342,4728,11564,01.202,551
2023-03-26T05:10:14,42.805,6.029,CST-1368DR,4342,4723,11553,01.205,551
2023-03-26T05:13:16,42.805,6.029,CST-1368DR,4342,4723,11552,01.206,551
2023-03-26T05:16:17,42.805,6.029,CST-1368DR,4342,4717,11538,01.211,551
2023-03-26T05:19:19,42.805,6.029,CST-1368DR,4342,4726,11560,01.203,551
2023-03-26T05:22:20,42.805,6.029,CST-1368DR,4342,4725,11557,01.204,551
2023-03-26T05:25:22,42.805,6.029,CST-1368DR,4342,4732,11575,01.198,551
2023-03-26T05:28:23,42.805,6.029,CST-1368DR,4342,4729,11567,01.201,551
2023-03-26T05:31:25,42.805,6.029,CST-1368DR,4342,4724,11555,01.205,551
2023-03-26T05:34:27,42.805,6.029,CST-1368DR,4342,4724,11554,01.205,551
2023-03-26T05:37:28,42.805,6.029,CST-1368DR,4342,4730,11569,01.200,551
2023-03-26T05:40:30,42.805,6.029,CST-1368DR,4342,4725,11559,01.203,551
2023-03-26T05:43:31,42.805,6.029,CST-1368DR,4342,4725,11559,01.203,551
2023-03-26T05:46:33,42.805,6.029,CST-1368DR,4342,4736,11584,01.195,551
2023-03-26T05:49:35,42.805,6.029,CST-1368DR,4342,4725,11558,01.204,551
2023-03-26T05:52:36,42.805,6.029,CST-1368DR,4342,4725,11559,01.203,551
2023-03-26T05:55:38,42.805,6.029,CST-1368DR,4342,4733,11577,01.197,551
2023-03-26T05:58:39,42.805,6.029,CST-1368DR,4342,4726,11560,01.203,551
2023-03-26T06:01:41,42.805,6.029,CST-1368DR,4342,4728,11566,01.201,551
2023-03-26T06:04:42,42.805,6.029,CST-1368DR,4342,4732,11574,01.198,551
2023-03-26T06:07:44,42.805,6.029,CST-1368DR,4342,4726,11559,01.203,551
2023-03-26T06:10:46,42.805,6.029,CST-1368DR,4342,4726,11560,01.203,551
2023-03-26T06:13:47,42.805,6.029,CST-1368DR,4342,4725,11557,01.204,551
2023-03-26T06:16:49,42.805,6.029,CST-1368DR,4342,4737,11586,01.194,551
2023-03-26T06:19:50,42.805,6.029,CST-1368DR,4342,4727,11562,01.202,551
2023-03-26T06:22:52,42.805,6.029,CST-1368DR,4342,4729,11567,01.201,551
2023-03-26T06:25:53,42.805,6.029,CST-1368DR,4342,4729,11566,01.201,551
2023-03-26T06:28:55,42.805,6.029,CST-1368DR,4342,4731,11571,01.199,551
2023-03-26T06:31:57,42.805,6.029,CST-1368DR,4342,4726,11561,01.203,551
2023-03-26T06:34:58,42.805,6.029,CST-1368DR,4342,4729,11568,01.200,551
2023-03-26T06:38:00,42.805,6.029,CST-1368DR,4342,4732,11574,01.198,551
2023-03-26T06:41:01,42.805,6.029,CST-1368DR,4342,4733,11578,01.197,551
2023-03-26T06:44:03,42.805,6.029,CST-1368DR,4342,4731,11571,01.199,551
2023-03-26T06:47:05,42.805,6.029,CST-1368DR,4342,4725,11557,01.204,551
2023-03-26T06:50:06,42.805,6.029,CST-1368DR,4342,4729,11568,01.200,551
2023-03-26T06:53:08,42.805,6.029,CST-1368DR,4342,4729,11566,01.201,551
2023-03-26T06:56:09,42.805,6.029,CST-1368DR,4342,4725,11557,01.204,551
2023-03-26T06:59:11,42.805,6.029,CST-1368DR,4342,4716,11536,01.211,551
2023-03-26T07:02:12,42.805,6.029,CST-1368DR,4342,4722,11550,01.206,551
2023-03-26T07:05:14,42.805,6.029,CST-1368DR,4342,4719,11543,01.209,551
2023-03-26T07:08:16,42.805,6.029,CST-1368DR,4342,4721,11547,01.207,551
2023-03-26T07:11:17,42.805,6.029,CST-1368DR,4342,4723,11552,01.206,551
2023-03-26T07:14:19,42.805,6.029,CST-1368DR,4342,4721,11547,01.207,551
2023-03-26T07:17:20,42.805,6.029,CST-1368DR,4342,4728,11565,01.201,551
2023-03-26T07:20:22,42.805,6.029,CST-1368DR,4342,4723,11554,01.205,551
2023-03-26T07:23:23,42.805,6.029,CST-1368DR,4342,4722,11550,01.206,551
2023-03-26T07:26:25,42.805,6.029,CST-1368DR,4342,4724,11554,01.205,551
2023-03-26T07:29:27,42.805,6.029,CST-1368DR,4342,4721,11549,01.207,551
2023-03-26T07:32:28,42.805,6.029,CST-1368DR,4342,4725,11557,01.204,551
2023-03-26T07:35:30,42.805,6.029,CST-1368DR,4342,4729,11566,01.201,551
2023-03-26T07:38:31,42.805,6.029,CST-1368DR,4342,4726,11560,01.203,551
2023-03-26T07:41:33,42.805,6.029,CST-1368DR,4342,4723,11552,01.206,551
2023-03-26T07:44:35,42.805,6.029,CST-1368DR,4342,4729,11567,01.201,551
2023-03-26T07:47:36,42.805,6.029,CST-1368DR,4342,4720,11546,01.208,551
2023-03-26T07:50:38,42.805,6.029,CST-1368DR,4342,4732,11574,01.198,551
2023-03-26T07:53:39,42.805,6.029,CST-1368DR,4342,4728,11565,01.201,551
2023-03-26T07:56:41,42.805,6.029,CST-1368DR,4342,4723,11552,01.206,551
2023-03-26T07:59:42,42.805,6.029,CST-1368DR,4342,4730,11571,01.199,551
2023-03-26T08:02:44,42.805,6.029,CST-1368DR,4342,4732,11574,01.198,551
2023-03-26T08:05:46,42.805,6.029,CST-1368DR,4342,4728,11565,01.201,551
2023-03-26T08:08:47,42.805,6.029,CST-1368DR,4342,4724,11555,01.205,551
2023-03-26T08:11:49,42.805,6.029,CST-1368DR,4342,4723,11554,01.205,551
2023-03-26T08:14:50,42.805,6.029,CST-1368DR,4342,4717,11538,01.211,551
2023-03-26T08:17:52,42.805,6.029,CST-1368DR,4342,4720,11544,01.209,551
2023-03-26T08:20:54,42.805,6.029,CST-1368DR,4342,4726,11561,01.203,551
2023-03-26T08:23:55,42.805,6.029,CST-1368DR,4342,4727,11562,01.202,551
2023-03-26T08:26:57,42.805,6.029,CST-1368DR,4342,4724,11554,01.205,551
2023-03-26T08:29:58,42.805,6.029,CST-1368DR,4342,4726,11559,01.203,551
2023-03-26T08:33:00,42.805,6.029,CST-1368DR,4342,4716,11535,01.212,551
2023-03-26T08:36:01,42.805,6.029,CST-1368DR,4342,4729,11567,01.201,551
2023-03-26T08:39:03,42.805,6.029,CST-1368DR,4342,4729,11566,01.201,551
2023-03-26T08:42:05,42.805,6.029,CST-1368DR,4342,4722,11549,01.207,551
2023-03-26T08:45:06,42.805,6.029,CST-1368DR,4342,4728,11564,01.202,551
2023-03-26T08:48:08,42.805,6.029,CST-1368DR,4342,4731,11573,01.198,551
2023-03-26T08:51:09,42.805,6.029,CST-1368DR,4342,4729,11566,01.201,552
2023-03-26T08:54:11,42.805,6.029,CST-1368DR,4342,4725,11559,01.203,551
2023-03-26T08:57:12,42.805,6.029,CST-1368DR,4342,4724,11555,01.205,551
2023-03-26T09:00:14,42.805,6.029,CST-1368DR,4342,4720,11545,01.208,551
2023-03-26T09:03:16,42.805,6.029,CST-1368DR,4342,4721,11547,01.207,551
2023-03-26T09:06:17,42.805,6.029,CST-1368DR,4342,4722,11550,01.206,551
2023-03-26T09:09:19,42.805,6.029,CST-1368DR,4342,4715,11532,01.213,551
2023-03-26T09:12:20,42.805,6.029,CST-1368DR,4342,4727,11563,01.202,551
2023-03-26T09:15:22,42.805,6.029,CST-1368DR,4342,4720,11545,01.208,551
2023-03-26T09:18:24,42.805,6.029,CST-1368DR,4342,4722,11550,01.206,551
2023-03-26T09:21:25,42.805,6.029,CST-1368DR,4342,4725,11557,01.204,551
2023-03-26T09:24:27,42.805,6.029,CST-1368DR,4342,4721,11549,01.207,551
2023-03-26T09:27:28,42.805,6.029,CST-1368DR,4342,4722,11551,01.206,551
2023-03-26T09:30:30,42.805,6.029,CST-1368DR,4342,4719,11543,01.209,551
2023-03-26T09:33:31,42.805,6.029,CST-1368DR,4342,4723,11554,01.205,551
2023-03-26T09:36:33,42.805,6.029,CST-1368DR,4342,4730,11569,01.200,551
2023-03-26T09:39:35,42.805,6.029,CST-1368DR,4342,4728,11565,01.201,551
2023-03-26T09:42:36,42.805,6.029,CST-1368DR,4342,4720,11544,01.209,551
2023-03-26T09:45:38,42.805,6.029,CST-1368DR,4342,4716,11535,01.212,551
2023-03-26T09:48:39,42.805,6.029,CST-1368DR,4342,4723,11554,01.205,551
2023-03-26T09:51:41,42.805,6.029,CST-1368DR,4342,4727,11562,01.202,551
2023-03-26T09:54:42,42.805,6.029,CST-1368DR,4342,4718,11540,01.210,551
2023-03-26T09:57:44,42.805,6.029,CST-1368DR,4342,4719,11543,01.209,551
2023-03-26T10:00:46,42.805,6.029,CST-1368DR,4342,4727,11562,01.202,551
2023-03-26T10:03:47,42.805,6.029,CST-1368DR,4342,4723,11553,01.205,551
2023-03-26T10:06:49,42.805,6.029,CST-1368DR,4342,4716,11535,01.212,551
2023-03-26T10:09:50,42.805,6.029,CST-1368DR,4342,4716,11536,01.211,551
2023-03-26T10:12:52,42.805,6.029,CST-1368DR,4342,4725,11557,01.204,551
2023-03-26T10:15:53,42.805,6.029,CST-1368DR,4342,4712,11525,01.215,551
2023-03-26T10:18:55,42.805,6.029,CST-1368DR,4342,4723,11553,01.205,551
2023-03-26T10:21:57,42.805,6.029,CST-1368DR,4342,4712,11526,01.215,551
2023-03-26T10:24:58,42.805,6.029,CST-1368DR,4342,4710,11521,01.216,551
2023-03-26T10:28:00,42.805,6.029,CST-1368DR,4342,4713,11527,01.214,551
2023-03-26T10:31:01,42.805,6.029,CST-1368DR,4342,4726,11559,01.203,551
2023-03-26T10:34:03,42.805,6.029,CST-1368DR,4342,4722,11550,01.206,551
2023-03-26T10:37:05,42.805,6.029,CST-1368DR,4342,4709,11518,01.218,551
2023-03-26T10:40:06,42.805,6.029,CST-1368DR,4342,4717,11538,01.211,551
2023-03-26T10:43:08,42.805,6.029,CST-1368DR,4342,4713,11527,01.214,551
2023-03-26T10:46:09,42.805,6.029,CST-1368DR,4342,4715,11533,01.212,551
2023-03-26T10:49:11,42.805,6.029,CST-1368DR,4342,4722,11551,01.206,551
2023-03-26T10:52:12,42.805,6.029,CST-1368DR,4342,4717,11538,01.211,551
2023-03-26T10:55:14,42.805,6.029,CST-1368DR,4342,4710,11521,01.216,551
2023-03-26T10:58:16,42.805,6.029,CST-1368DR,4342,4714,11531,01.213,551
2023-03-26T11:01:17,42.805,6.029,CST-1368DR,4342,4703,11503,01.223,551
2023-03-26T11:04:19,42.805,6.029,CST-1368DR,4342,4707,11513,01.219,551
2023-03-26T11:07:20,42.805,6.029,CST-1368DR,4342,4712,11527,01.214,551
2023-03-26T11:10:22,42.805,6.029,CST-1368DR,4342,4714,11530,01.213,551
2023-03-26T11:13:23,42.805,6.029,CST-1368DR,4342,4720,11544,01.209,551
2023-03-26T11:16:25,42.805,6.029,CST-1368DR,4342,4713,11529,01.214,551
2023-03-26T11:19:27,42.805,6.029,CST-1368DR,4342,4715,11534,01.212,551
2023-03-26T11:22:28,42.805,6.029,CST-1368DR,4342,4710,11521,01.216,551
2023-03-26T11:25:30,42.805,6.029,CST-1368DR,4342,4720,11546,01.208,551
2023-03-26T11:28:31,42.805,6.029,CST-1368DR,4342,4719,11542,01.209,551
2023-03-26T11:31:33,42.805,6.029,CST-1368DR,4342,4719,11542,01.209,551
2023-03-26T11:34:35,42.805,6.029,CST-1368DR,4342,4710,11522,01.216,551
2023-03-26T11:37:36,42.805,6.029,CST-1368DR,4342,4717,11538,01.211,551
2023-03-26T11:40:38,42.805,6.029,CST-1368DR,4342,4712,11527,01.214,551
2023-03-26T11:43:39,42.805,6.029,CST-1368DR,4342,4718,11541,01.210,551
2023-03-26T11:46:41,42.805,6.029,CST-1368DR,4342,4710,11521,01.216,551
2023-03-26T11:49:42,42.805,6.029,CST-1368DR,4342,4733,11576,01.197,551
2023-03-26T11:52:44,42.805,6.029,CST-1368DR,4342,4709,11519,01.217,551
2023-03-26T11:55:46,42.805,6.029,CST-1368DR,4342,4714,11531,01.213,551
2023-03-26T11:58:47,42.805,6.029,CST-1368DR,4342,4723,11552,01.206,551
2023-03-26T12:01:49,42.805,6.029,CST-1368DR,4342,4700,11497,01.225,551
2023-03-26T12:04:50,42.805,6.029,CST-1368DR,4342,4701,11498,01.224,551
2023-03-26T12:07:52,42.805,6.029,CST-1368DR,4342,4706,11511,01.220,551
2023-03-26T12:10:54,42.805,6.029,CST-1368DR,4342,4716,11535,01.212,551
2023-03-26T12:13:55,42.805,6.029,CST-1368DR,4342,4708,11517,01.218,551
2023-03-26T12:16:57,42.805,6.029,CST-1368DR,4342,4703,11503,01.223,551
2023-03-26T12:19:58,42.805,6.029,CST-1368DR,4342,4701,11500,01.224,551
2023-03-26T12:23:00,42.805,6.029,CST-1368DR,4342,4706,11512,01.220,551
2023-03-26T12:26:01,42.805,6.029,CST-1368DR,4342,4706,11511,01.220,551
2023-03-26T12:29:03,42.805,6.029,CST-1368DR,4342,4702,11502,01.223,551
2023-03-26T12:32:05,42.805,6.029,CST-1368DR,4342,4705,11510,01.220,551
2023-03-26T12:35:06,42.805,6.029,CST-1368DR,4342,4710,11522,01.216,551
2023-03-26T12:38:08,42.805,6.029,CST-1368DR,4342,4715,11534,01.212,551
2023-03-26T12:41:09,42.805,6.029,CST-1368DR,4342,4717,11537,01.211,551
2023-03-26T12:44:11,42.805,6.029,CST-1368DR,4342,4707,11514,01.219,551
2023-03-26T12:47:12,42.805,6.029,CST-1368DR,4342,4721,11549,01.207,551
2023-03-26T12:50:14,42.805,6.029,CST-1368DR,4342,4713,11529,01.214,551
2023-03-26T12:53:16,42.805,6.029,CST-1368DR,4342,4713,11529,01.214,551
2023-03-26T12:56:17,42.805,6.029,CST-1368DR,4342,4710,11521,01.216,551
2023-03-26T12:59:19,42.805,6.029,CST-1368DR,4342,4718,11541,01.210,551
2023-03-26T13:02:20,42.805,6.029,CST-1368DR,4342,4702,11502,01.223,551
2023-03-26T13:05:22,42.805,6.029,CST-1368DR,4342,4706,11511,01.220,551
2023-03-26T13:08:23,42.805,6.029,CST-1368DR,4342,4711,11522,01.216,551
2023-03-26T13:11:25,42.805,6.029,CST-1368DR,4342,4708,11516,01.218,551
2023-03-26T13:14:27,42.805,6.029,CST-1368DR,4342,4713,11528,01.214,551
2023-03-26T13:17:28,42.805,6.029,CST-1368DR,4342,4707,11513,01.219,551
2023-03-26T13:20:30,42.805,6.029,CST-1368DR,4342,4708,11517,01.218,551
2023-03-26T13:23:31,42.805,6.029,CST-1368DR,4342,4720,11545,01.208,551
2023-03-26T13:26:33,42.805,6.029,CST-1368DR,4342,4715,11534,01.212,551
2023-03-26T13:29:35,42.805,6.029,CST-1368DR,4342,4713,11529,01.214,551
2023-03-26T13:32:36,42.805,6.029,CST-1368DR,4342,4713,11529,01.214,551
2023-03-26T13:35:38,42.805,6.029,CST-1368DR,4342,4703,11504,01.222,551
2023-03-26T13:38:39,42.805,6.029,CST-1368DR,4342,4707,11513,01.219,551
2023-03-26T13:41:41,42.805,6.029,CST-1368DR,4342,4705,11509,01.221,551
2023-03-26T13:44:42,42.805,6.029,CST-1368DR,4342,4697,11488,01.228,551
2023-03-26T13:47:44,42.805,6.029,CST-1368DR,4342,4720,11546,01.208,551
2023-03-26T13:50:46,42.805,6.029,CST-1368DR,4342,4710,11521,01.216,551
2023-03-26T13:53:47,42.805,6.029,CST-1368DR,4342,4713,11529,01.214,551
2023-03-26T13:56:49,42.805,6.029,CST-1368DR,4342,4707,11513,01.219,551
2023-03-26T13:59:50,42.805,6.029,CST-1368DR,4342,4708,11517,01.218,551
2023-03-26T14:02:52,42.805,6.029,CST-1368DR,4342,4707,11513,01.219,551
2023-03-26T14:05:53,42.805,6.029,CST-1368DR,4342,4697,11489,01.228,551
2023-03-26T14:08:55,42.805,6.029,CST-1368DR,4342,4713,11527,01.214,551
2023-03-26T14:11:57,42.805,6.029,CST-1368DR,4342,4717,11538,01.211,551
2023-03-26T14:14:58,42.805,6.029,CST-1368DR,4342,4716,11536,01.211,551
2023-03-26T14:18:00,42.805,6.029,CST-1368DR,4342,4706,11511,01.220,551
2023-03-26T14:21:01,42.805,6.029,CST-1368DR,4342,4705,11510,01.220,551
2023-03-26T14:24:03,42.805,6.029,CST-1368DR,4342,4699,11494,01.226,551
2023-03-26T14:27:05,42.805,6.029,CST-1368DR,4342,4705,11508,01.221,551
2023-03-26T14:30:07,42.805,6.029,CST-1368DR,4342,4700,11497,01.225,551
2023-03-26T14:33:09,42.805,6.029,CST-1368DR,4342,4702,11502,01.223,551
2023-03-26T14:36:10,42.805,6.029,CST-1368DR,4342,4696,11486,01.229,551
2023-03-26T14:39:12,42.805,6.029,CST-1368DR,4342,4717,11538,01.211,551
2023-03-26T14:42:13,42.805,6.029,CST-1368DR,4342,4705,11510,01.220,552
2023-03-26T14:45:15,42.805,6.029,CST-1368DR,4342,4706,11510,01.220,551
2023-03-26T14:48:16,42.805,6.029,CST-1368DR,4342,4712,11525,01.215,551
2023-03-26T14:51:18,42.805,6.029,CST-1368DR,4342,4707,11513,01.219,551
2023-03-26T14:54:20,42.805,6.029,CST-1368DR,4342,4711,11524,01.215,551
2023-03-26T14:57:21,42.805,6.029,CST-1368DR,4342,4710,11521,01.216,551
2023-03-26T15:00:23,42.805,6.029,CST-1368DR,4342,4710,11522,01.216,551
2023-03-26T15:03:24,42.805,6.029,CST-1368DR,4342,4706,11510,01.220,551
2023-03-26T15:06:26,42.805,6.029,CST-1368DR,4342,4701,11498,01.224,551
2023-03-26T15:09:28,42.805,6.029,CST-1368DR,4342,4705,11510,01.220,551
2023-03-26T15:12:29,42.805,6.029,CST-1368DR,4342,4704,11507,01.221,551
2023-03-26T15:15:31,42.805,6.029,CST-1368DR,4342,4696,11486,01.229,551
2023-03-26T15:18:32,42.805,6.029,CST-1368DR,4342,4695,11483,01.230,551
2023-03-26T15:21:34,42.805,6.029,CST-1368DR,4342,4712,11525,01.215,551
2023-03-26T15:24:35,42.805,6.029,CST-1368DR,4342,4701,11499,01.224,551
2023-03-26T15:27:37,42.805,6.029,CST-1368DR,4342,4710,11522,01.216,551
2023-03-26T15:30:39,42.805,6.029,CST-1368DR,4342,4706,11512,01.220,551
2023-03-26T15:33:40,42.805,6.029,CST-1368DR,4342,4717,11538,01.211,551
2023-03-26T15:36:42,42.805,6.029,CST-1368DR,4342,4705,11509,01.221,551
2023-03-26T15:39:43,42.805,6.029,CST-1368DR,4342,4715,11533,01.212,551
2023-03-26T15:42:45,42.805,6.029,CST-1368DR,4342,4705,11508,01.221,551
2023-03-26T15:45:46,42.805,6.029,CST-1368DR,4342,4710,11520,01.217,551
2023-03-26T15:48:48,42.805,6.029,CST-1368DR,4342,4710,11521,01.216,551
2023-03-26T15:51:50,42.805,6.029,CST-1368DR,4342,4704,11505,01.222,551
2023-03-26T15:54:51,42.805,6.029,CST-1368DR,4342,4707,11514,01.219,551
2023-03-26T15:57:53,42.805,6.029,CST-1368DR,4342,4698,11492,01.227,551
2023-03-26T16:00:54,42.805,6.029,CST-1368DR,4342,4713,11529,01.214,551
2023-03-26T16:03:56,42.805,6.029,CST-1368DR,4342,4711,11524,01.215,551
2023-03-26T16:06:58,42.805,6.029,CST-1368DR,4342,4709,11519,01.217,551
2023-03-26T16:09:59,42.805,6.029,CST-1368DR,4342,4706,11511,01.220,551
2023-03-26T16:13:01,42.805,6.029,CST-1368DR,4342,4715,11532,01.213,551
2023-03-26T16:16:02,42.805,6.029,CST-1368DR,4342,4705,11508,01.221,551
2023-03-26T16:19:04,42.805,6.029,CST-1368DR,4342,4716,11536,01.211,551
2023-03-26T16:22:05,42.805,6.029,CST-1368DR,4342,4712,11525,01.215,551
2023-03-26T16:25:07,42.805,6.029,CST-1368DR,4342,4714,11530,01.213,551
2023-03-26T16:28:09,42.805,6.029,CST-1368DR,4342,4708,11516,01.218,551
2023-03-26T16:31:11,42.805,6.029,CST-1368DR,4342,4707,11514,01.219,551
2023-03-26T16:34:13,42.805,6.029,CST-1368DR,4342,4715,11533,01.212,551
2023-03-26T16:37:14,42.805,6.029,CST-1368DR,4342,4712,11525,01.215,551